Location: Reutlingen
(48.4911°N, 9.2587°E)
Time: 15:55:37
(UTC+01:00)

N. Korean satellite - Visible Passes

Search period start: 22 November 2017 00:00
Search period end: 02 December 2017 00:00
Orbit: 460 x 514 km, 97.2° (Epoch: 21 November)

Date Brightness Start Highest point End Pass type
(mag) Time Alt. Az. Time Alt. Az. Time Alt. Az.
22 Nov 9.8 06:19:12 10° NE 06:21:51 18° E 06:24:29 10° SE visible
22 Nov 7.2 18:31:37 10° S 18:35:05 57° W 18:38:39 10° NNW visible
23 Nov 10.5 05:57:41 10° E 05:58:07 10° E 05:58:34 10° E visible
23 Nov 6.4 18:08:04 10° SSE 18:11:35 73° ENE 18:15:12 10° N visible
24 Nov 7.4 07:04:54 10° NNE 07:08:38 58° E 07:12:20 10° S visible
24 Nov 7.0 17:44:51 10° SE 17:48:10 38° ENE 17:51:33 10° N visible
24 Nov 9.5 19:19:29 10° SW 19:21:52 17° W 19:24:18 10° NW visible
25 Nov 8.8 06:41:38 10° NNE 06:45:03 31° E 06:48:26 10° SSE visible
25 Nov 7.8 17:22:01 10° ESE 17:24:49 22° ENE 17:27:40 10° NNE visible
25 Nov 8.5 18:55:01 10° SSW 18:58:11 30° W 19:01:27 10° NNW visible
26 Nov 9.8 06:18:44 10° NE 06:21:24 18° E 06:24:02 10° SE visible
26 Nov 7.2 18:31:06 10° S 18:34:36 58° W 18:38:12 10° NNW visible
27 Nov 10.4 05:57:11 10° E 05:57:39 10° E 05:58:07 10° E visible
27 Nov 6.4 18:07:32 10° SSE 18:11:05 73° ENE 18:14:44 10° N visible
28 Nov 7.4 07:04:24 10° NNE 07:08:08 58° E 07:11:51 10° S visible
28 Nov 7.0 17:44:18 10° SE 17:47:38 38° ENE 17:51:04 10° N visible
28 Nov 9.5 19:18:53 10° SW 19:21:20 17° W 19:23:50 10° NW visible
29 Nov 8.8 06:41:08 10° NNE 06:44:32 31° E 06:47:56 10° SSE visible
29 Nov 7.8 17:21:27 10° ESE 17:24:17 22° ENE 17:27:10 10° NNE visible
29 Nov 8.5 18:54:26 10° SSW 18:57:39 31° W 19:00:57 10° NNW visible
30 Nov 9.8 06:18:12 10° NE 06:20:52 18° E 06:23:30 10° SE visible
30 Nov 7.2 18:30:30 10° S 18:34:02 58° W 18:37:41 10° NNW visible
01 Dec 10.4 05:56:42 10° E 05:57:06 10° E 05:57:29 10° E visible
01 Dec 6.5 18:06:54 10° SSE 18:10:30 72° ENE 18:14:11 10° N visible
